User: anonymous   Login
Location: Altleiningen
(49.5078°N, 8.0741°E)
Time: 12:30:17
(UTC+00:00)
Language:

Cosmos 1727 Rocket - Orbit

View from above orbital plane
View from above orbital plane
View from above satellite
View from above satellite

Ground track
Ground track

The orbit data is extracted from the following two-line orbital elements,

1 16511U 86008B   21137.83631282  .00000046  00000-0  31841-4 0  9994
2 16511  82.9460 238.9111 0022944 244.3077 235.7351 13.75796182772997
Epoch (UTC): 17 May 2021 20:04:17
Eccentricity: 0.0022944
inclination: 82.9460°
perigee height: 962 km
apogee height: 996 km
right ascension of ascending node: 238.9111°
argument of perigee: 244.3077°
revolutions per day: 13.75796182
mean anomaly at epoch: 235.7351°
orbit number at epoch: 77299

The dashed part of the orbit path shows where the satellite is in the earth's shadow,  

DLR